Time,TemperatureF,DewpointF,PressureIn,WindDirection,WindDirectionDegrees,WindSpeedMPH,WindSpeedGustMPH,Humidity,HourlyPrecipIn,Conditions,Clouds,dailyrainin,SolarRadiationWatts/m^2,SoftwareType,DateUTC
2013-11-04 00:21:00,33.0,32.0,-100.00,NW,326,0.0,5.0,96,0.00,,,0.00,0.000000,,2013-11-04 09:21:00,
2013-11-04 00:33:00,33.0,32.0,-100.00,NW,326,0.0,5.0,96,0.00,,,0.00,0.000000,,2013-11-04 09:33:00,
2013-11-04 00:43:00,33.0,32.0,-100.00,NW,326,0.0,5.0,96,0.00,,,0.00,0.000000,,2013-11-04 09:43:00,
2013-11-04 00:53:00,33.0,32.0,-100.00,NW,326,0.0,5.0,96,0.00,,,0.00,0.000000,,2013-11-04 09:53:00,
2013-11-04 01:23:00,32.0,31.0,-100.00,East,83,1.0,3.0,97,0.00,,,0.00,0.000000,,2013-11-04 10:23:00,
2013-11-04 01:33:00,32.0,31.0,-100.00,East,83,1.0,3.0,97,0.00,,,0.00,0.000000,,2013-11-04 10:33:00,
2013-11-04 01:42:00,32.0,31.0,-100.00,East,83,1.0,3.0,97,0.00,,,0.00,0.000000,,2013-11-04 10:42:00,
2013-11-04 01:52:00,32.0,31.0,-100.00,East,83,1.0,3.0,97,0.00,,,0.00,0.000000,,2013-11-04 10:52:00,
2013-11-04 02:22:00,32.0,31.0,-100.00,North,350,2.0,4.0,97,0.00,,,0.00,0.000000,,2013-11-04 11:22:00,
2013-11-04 02:32:00,32.0,31.0,-100.00,North,350,2.0,4.0,97,0.00,,,0.00,0.000000,,2013-11-04 11:32:00,
2013-11-04 02:42:00,32.0,31.0,-100.00,North,350,2.0,4.0,97,0.00,,,0.00,0.000000,,2013-11-04 11:42:00,
2013-11-04 02:52:00,32.0,31.0,-100.00,North,350,2.0,4.0,97,0.00,,,0.00,0.000000,,2013-11-04 11:52:00,
2013-11-04 03:22:00,31.0,30.0,-100.00,ENE,58,2.0,4.0,97,0.00,,,-99.99,0.000000,,2013-11-04 12:22:00,
2013-11-04 03:32:00,31.0,30.0,-100.00,ENE,58,2.0,4.0,97,0.00,,,-99.99,0.000000,,2013-11-04 12:32:00,
2013-11-04 03:42:00,31.0,30.0,-100.00,ENE,58,2.0,4.0,97,0.00,,,-99.99,0.000000,,2013-11-04 12:42:00,
2013-11-04 03:52:00,31.0,30.0,-100.00,ENE,58,2.0,4.0,97,0.00,,,-99.99,0.000000,,2013-11-04 12:52:00,
2013-11-04 04:21:00,31.0,31.0,-100.00,ENE,59,1.0,3.0,98,0.00,,,0.00,0.000000,,2013-11-04 13:21:00,
2013-11-04 04:32:00,31.0,31.0,-100.00,ENE,59,1.0,3.0,98,0.00,,,0.00,0.000000,,2013-11-04 13:32:00,
2013-11-04 04:42:00,31.0,31.0,-100.00,ENE,59,1.0,3.0,98,0.00,,,0.00,0.000000,,2013-11-04 13:42:00,
2013-11-04 04:52:00,31.0,31.0,-100.00,ENE,59,1.0,3.0,98,0.00,,,0.00,0.000000,,2013-11-04 13:52:00,
2013-11-04 05:22:00,31.0,31.0,-100.00,ESE,117,2.0,4.0,98,0.00,,,0.00,0.000000,,2013-11-04 14:22:00,
2013-11-04 05:32:00,31.0,31.0,-100.00,ESE,117,2.0,4.0,98,0.00,,,0.00,0.000000,,2013-11-04 14:32:00,
2013-11-04 05:42:00,31.0,31.0,-100.00,ESE,117,2.0,4.0,98,0.00,,,0.00,0.000000,,2013-11-04 14:42:00,
2013-11-04 05:52:00,31.0,31.0,-100.00,ESE,117,2.0,4.0,98,0.00,,,0.00,0.000000,,2013-11-04 14:52:00,
2013-11-04 06:21:00,31.0,31.0,-100.00,SW,217,1.0,4.0,98,0.00,,,0.00,0.000000,,2013-11-04 15:21:00,
2013-11-04 06:32:00,31.0,31.0,-100.00,SW,217,1.0,4.0,98,0.00,,,0.00,0.000000,,2013-11-04 15:32:00,
2013-11-04 06:42:00,31.0,31.0,-100.00,SW,217,1.0,4.0,98,0.00,,,0.00,0.000000,,2013-11-04 15:42:00,
2013-11-04 06:52:00,31.0,31.0,-100.00,SW,217,1.0,4.0,98,0.00,,,0.00,0.000000,,2013-11-04 15:52:00,
2013-11-04 07:23:00,31.0,31.0,-100.00,NNW,348,1.0,2.0,98,0.00,,,0.00,0.000000,,2013-11-04 16:23:00,
2013-11-04 07:33:00,31.0,31.0,-100.00,NNW,348,1.0,2.0,98,0.00,,,0.00,0.000000,,2013-11-04 16:33:00,
2013-11-04 07:43:00,31.0,31.0,-100.00,NNW,348,1.0,2.0,98,0.00,,,0.00,0.000000,,2013-11-04 16:43:00,
2013-11-04 07:53:00,31.0,31.0,-100.00,NNW,348,1.0,2.0,98,0.00,,,0.00,0.000000,,2013-11-04 16:53:00,
2013-11-04 08:22:00,30.0,29.0,-100.00,ENE,72,0.0,1.0,98,0.00,,,0.00,0.000000,,2013-11-04 17:22:00,
2013-11-04 08:33:00,30.0,29.0,-100.00,ENE,72,0.0,1.0,98,0.00,,,0.00,0.000000,,2013-11-04 17:33:00,
2013-11-04 08:42:00,30.0,29.0,-100.00,ENE,72,0.0,1.0,98,0.00,,,0.00,0.000000,,2013-11-04 17:42:00,
2013-11-04 08:53:00,30.0,29.0,-100.00,ENE,72,0.0,1.0,98,0.00,,,0.00,0.000000,,2013-11-04 17:53:00,
2013-11-04 09:23:00,29.0,29.0,-100.00,ENE,78,0.0,0.0,98,0.00,,,0.00,1.000000,,2013-11-04 18:23:00,
2013-11-04 09:32:00,29.0,29.0,-100.00,ENE,78,0.0,0.0,98,0.00,,,0.00,1.000000,,2013-11-04 18:32:00,
2013-11-04 09:42:00,29.0,29.0,-100.00,ENE,78,0.0,0.0,98,0.00,,,0.00,1.000000,,2013-11-04 18:42:00,
2013-11-04 09:52:00,29.0,29.0,-100.00,ENE,78,0.0,0.0,98,0.00,,,0.00,1.000000,,2013-11-04 18:52:00,
2013-11-04 10:42:00,28.0,28.0,-100.00,ENE,76,0.0,0.0,98,0.00,,,0.00,15.000000,,2013-11-04 19:42:00,
2013-11-04 10:52:00,28.0,28.0,-100.00,ENE,76,0.0,0.0,98,0.00,,,0.00,15.000000,,2013-11-04 19:52:00,
2013-11-04 11:22:00,30.0,29.0,-100.00,NW,316,0.0,0.0,98,0.00,,,0.00,40.000000,,2013-11-04 20:22:00,
2013-11-04 11:32:00,30.0,29.0,-100.00,NW,316,0.0,0.0,98,0.00,,,0.00,40.000000,,2013-11-04 20:32:00,
2013-11-04 11:42:00,30.0,29.0,-100.00,NW,316,0.0,0.0,98,0.00,,,0.00,40.000000,,2013-11-04 20:42:00,
2013-11-04 11:52:00,30.0,29.0,-100.00,NW,316,0.0,0.0,98,0.00,,,0.00,40.000000,,2013-11-04 20:52:00,
2013-11-04 12:22:00,32.0,32.0,-100.00,NNE,30,0.0,2.0,98,0.00,,,0.00,63.000000,,2013-11-04 21:22:00,
2013-11-04 12:34:00,32.0,32.0,-100.00,NNE,30,0.0,2.0,98,0.00,,,0.00,63.000000,,2013-11-04 21:34:00,
2013-11-04 12:44:00,32.0,32.0,-100.00,NNE,30,0.0,2.0,98,0.00,,,0.00,63.000000,,2013-11-04 21:44:00,
2013-11-04 12:54:00,32.0,32.0,-100.00,NNE,30,0.0,2.0,98,0.00,,,0.00,63.000000,,2013-11-04 21:54:00,
2013-11-04 13:23:00,33.0,32.0,-100.00,North,8,1.0,4.0,96,0.00,,,0.00,70.000000,,2013-11-04 22:23:00,
2013-11-04 13:33:00,33.0,32.0,-100.00,North,8,1.0,4.0,96,0.00,,,0.00,70.000000,,2013-11-04 22:33:00,
2013-11-04 13:43:00,33.0,32.0,-100.00,North,8,1.0,4.0,96,0.00,,,0.00,70.000000,,2013-11-04 22:43:00,
2013-11-04 13:53:00,33.0,32.0,-100.00,North,8,1.0,4.0,96,0.00,,,0.00,70.000000,,2013-11-04 22:53:00,
2013-11-04 14:22:00,37.0,34.0,-100.00,NNE,16,2.0,5.0,87,0.00,,,0.00,104.000000,,2013-11-04 23:22:00,
2013-11-04 14:33:00,37.0,34.0,-100.00,NNE,16,2.0,5.0,87,0.00,,,0.00,104.000000,,2013-11-04 23:33:00,
2013-11-04 14:43:00,37.0,34.0,-100.00,NNE,16,2.0,5.0,87,0.00,,,0.00,104.000000,,2013-11-04 23:43:00,
2013-11-04 14:53:00,37.0,34.0,-100.00,NNE,16,2.0,5.0,87,0.00,,,0.00,104.000000,,2013-11-04 23:53:00,
2013-11-04 15:22:00,37.0,31.0,-100.00,NNE,24,1.0,5.0,79,0.00,,,0.00,76.000000,,2013-11-05 00:22:00,
2013-11-04 15:32:00,37.0,31.0,-100.00,NNE,24,1.0,5.0,79,0.00,,,0.00,76.000000,,2013-11-05 00:32:00,
2013-11-04 15:42:00,37.0,31.0,-100.00,NNE,24,1.0,5.0,79,0.00,,,0.00,76.000000,,2013-11-05 00:42:00,
2013-11-04 15:52:00,37.0,31.0,-100.00,NNE,24,1.0,5.0,79,0.00,,,0.00,76.000000,,2013-11-05 00:52:00,
2013-11-04 16:21:00,35.0,32.0,-100.00,ENE,67,0.0,3.0,87,0.00,,,0.00,26.000000,,2013-11-05 01:21:00,
2013-11-04 16:32:00,35.0,32.0,-100.00,ENE,67,0.0,3.0,87,0.00,,,0.00,26.000000,,2013-11-05 01:32:00,
2013-11-04 16:42:00,35.0,32.0,-100.00,ENE,67,0.0,3.0,87,0.00,,,0.00,26.000000,,2013-11-05 01:42:00,
2013-11-04 16:52:00,35.0,32.0,-100.00,ENE,67,0.0,3.0,87,0.00,,,0.00,26.000000,,2013-11-05 01:52:00,
2013-11-04 17:22:00,33.0,31.0,-100.00,ENE,76,0.0,1.0,91,0.00,,,0.00,7.000000,,2013-11-05 02:22:00,
2013-11-04 17:32:00,33.0,31.0,-100.00,ENE,76,0.0,1.0,91,0.00,,,0.00,7.000000,,2013-11-05 02:32:00,
2013-11-04 17:42:00,33.0,31.0,-100.00,ENE,76,0.0,1.0,91,0.00,,,0.00,7.000000,,2013-11-05 02:42:00,
2013-11-04 17:52:00,33.0,31.0,-100.00,ENE,76,0.0,1.0,91,0.00,,,0.00,7.000000,,2013-11-05 02:52:00,
2013-11-04 18:22:00,32.0,30.0,-100.00,ENE,57,0.0,0.0,93,0.00,,,0.00,0.000000,,2013-11-05 03:22:00,
2013-11-04 18:33:00,32.0,30.0,-100.00,ENE,57,0.0,0.0,93,0.00,,,0.00,0.000000,,2013-11-05 03:33:00,
2013-11-04 18:44:00,32.0,30.0,-100.00,ENE,57,0.0,0.0,93,0.00,,,0.00,0.000000,,2013-11-05 03:44:00,
2013-11-04 18:54:00,32.0,30.0,-100.00,ENE,57,0.0,0.0,93,0.00,,,0.00,0.000000,,2013-11-05 03:54:00,
2013-11-04 19:23:00,32.0,30.0,-100.00,East,92,0.0,0.0,93,0.00,,,0.00,0.000000,,2013-11-05 04:23:00,
2013-11-04 19:34:00,32.0,30.0,-100.00,East,92,0.0,0.0,93,0.00,,,0.00,0.000000,,2013-11-05 04:34:00,
2013-11-04 19:43:00,32.0,30.0,-100.00,East,92,0.0,0.0,93,0.00,,,0.00,0.000000,,2013-11-05 04:43:00,
2013-11-04 19:53:00,32.0,30.0,-100.00,East,92,0.0,0.0,93,0.00,,,0.00,0.000000,,2013-11-05 04:53:00,
2013-11-04 20:23:00,32.0,30.0,-100.00,East,85,0.0,0.0,94,0.00,,,0.00,0.000000,,2013-11-05 05:23:00,
2013-11-04 20:34:00,32.0,30.0,-100.00,East,85,0.0,0.0,94,0.00,,,0.00,0.000000,,2013-11-05 05:34:00,
2013-11-04 20:43:00,32.0,30.0,-100.00,East,85,0.0,0.0,94,0.00,,,0.00,0.000000,,2013-11-05 05:43:00,
2013-11-04 20:53:00,32.0,30.0,-100.00,East,85,0.0,0.0,94,0.00,,,0.00,0.000000,,2013-11-05 05:53:00,
2013-11-04 21:21:00,31.0,29.0,-100.00,NE,34,0.0,2.0,94,0.00,,,0.00,0.000000,,2013-11-05 06:21:00,
2013-11-04 21:32:00,31.0,29.0,-100.00,NE,34,0.0,2.0,94,0.00,,,0.00,0.000000,,2013-11-05 06:32:00,
2013-11-04 21:42:00,31.0,29.0,-100.00,NE,34,0.0,2.0,94,0.00,,,0.00,0.000000,,2013-11-05 06:42:00,
2013-11-04 21:52:00,31.0,29.0,-100.00,NE,34,0.0,2.0,94,0.00,,,0.00,0.000000,,2013-11-05 06:52:00,
2013-11-04 22:22:00,31.0,30.0,-100.00,ENE,58,0.0,2.0,95,0.00,,,0.00,0.000000,,2013-11-05 07:22:00,
2013-11-04 22:32:00,31.0,30.0,-100.00,ENE,58,0.0,2.0,95,0.00,,,0.00,0.000000,,2013-11-05 07:32:00,
2013-11-04 22:42:00,31.0,30.0,-100.00,ENE,58,0.0,2.0,95,0.00,,,0.00,0.000000,,2013-11-05 07:42:00,
2013-11-04 22:52:00,31.0,30.0,-100.00,ENE,58,0.0,2.0,95,0.00,,,0.00,0.000000,,2013-11-05 07:52:00,
2013-11-04 23:22:00,31.0,30.0,-100.00,ESE,105,0.0,1.0,95,0.00,,,0.00,0.000000,,2013-11-05 08:22:00,
2013-11-04 23:32:00,31.0,30.0,-100.00,ESE,105,0.0,1.0,95,0.00,,,0.00,0.000000,,2013-11-05 08:32:00,
2013-11-04 23:42:00,31.0,30.0,-100.00,ESE,105,0.0,1.0,95,0.00,,,0.00,0.000000,,2013-11-05 08:42:00,
2013-11-04 23:52:00,31.0,30.0,-100.00,ESE,105,0.0,1.0,95,0.00,,,0.00,0.000000,,2013-11-05 08:52:00,